Lincoln County, Oregon, United States
Lat: 44.65N, Lon: 123.85W
Wx Zone: ORZ004
Local Info
Past Weather Observations for Yesterday

NOTE: This archive is for the closest National Weather Service station to Lincoln County. Information may differ from the station used for current weather conditions.

Click here for Long-term Archive

Time Weather Temperature Dewpoint Humidity Pressure Winds Precip Visibility
23:55
Overcast
52°F / 11°C 52°F / 11°C 100% 30.3 in
(1026 mb)
E 5.8 mph
(E 9 kph)
- 10SM
23:35
Mostly Cloudy
52°F / 11°C 52°F / 11°C 100% 30.3 in
(1026 mb)
E 5.8 mph
(E 9 kph)
- 10SM
23:15
Overcast
52°F / 11°C 52°F / 11°C 100% 30.3 in
(1026 mb)
E 5.8 mph
(E 9 kph)
- 10SM
22:55
Overcast
54°F / 12°C 52°F / 11°C 94% 30.3 in
(1026 mb)
ENE 3.5 mph
(ENE 6 kph)
- 10SM
22:35
Overcast
54°F / 12°C 52°F / 11°C 94% 30.3 in
(1026 mb)
Calm - 10SM
22:15
Overcast
54°F / 12°C 52°F / 11°C 94% N/A Calm - 10SM
21:55
Overcast
54°F / 12°C 52°F / 11°C 94% 30.3 in
(1026 mb)
Calm - 10SM
21:35
Overcast
54°F / 12°C 52°F / 11°C 94% 30.3 in
(1026 mb)
ESE 3.5 mph
(ESE 6 kph)
- 10SM
21:15
Overcast
54°F / 12°C 52°F / 11°C 94% 30.3 in
(1026 mb)
Calm - 10SM
20:55
Overcast
54°F / 12°C 52°F / 11°C 94% 30.3 in
(1026 mb)
E 3.5 mph
(E 6 kph)
- 10SM
20:35
Overcast
54°F / 12°C 52°F / 11°C 94% 30.3 in
(1026 mb)
Calm - 10SM
20:15
Overcast
54°F / 12°C 52°F / 11°C 94% 30.3 in
(1026 mb)
Calm - 10SM
19:55
Overcast
54°F / 12°C 52°F / 11°C 94% 30.3 in
(1026 mb)
Calm - 10SM
19:35
Overcast
54°F / 12°C 52°F / 11°C 94% 30.3 in
(1026 mb)
SSE 3.5 mph
(SSE 6 kph)
- 10SM
19:15
Overcast
52°F / 11°C 50°F / 10°C 94% 30.27 in
(1025 mb)
S 6.9 mph
(S 11 kph)
- 10SM
18:55
Overcast
52°F / 11°C 50°F / 10°C 94% 30.27 in
(1025 mb)
S 9.2 mph
(S 15 kph)
- 10SM
18:35
Overcast
52°F / 11°C 50°F / 10°C 94% 30.27 in
(1025 mb)
S 10.4 mph
(S 17 kph)
- 10SM
18:15
Overcast
52°F / 11°C 52°F / 11°C 100% 30.27 in
(1025 mb)
S 9.2 mph
(S 15 kph)
- 10SM
17:55
Overcast
52°F / 11°C 52°F / 11°C 100% 30.27 in
(1025 mb)
S 11.5 mph
(S 19 kph)
- 10SM
17:35
Overcast
52°F / 11°C 52°F / 11°C 100% 30.27 in
(1025 mb)
S 11.5 mph
(S 19 kph)
- 10SM
17:15
Overcast
52°F / 11°C 52°F / 11°C 100% 30.27 in
(1025 mb)
S 12.7 mph
(S 20 kph)
- 10SM
16:55
Overcast
Fog And Mist
52°F / 11°C 52°F / 11°C 100% 30.27 in
(1025 mb)
S 11.5 mph
(S 19 kph)
- 5SM
16:35
Overcast
Fog And Mist
52°F / 11°C 52°F / 11°C 100% 30.27 in
(1025 mb)
S 9.2 mph
(S 15 kph)
- 4SM
16:15
Overcast
Drizzle
52°F / 11°C 52°F / 11°C 100% 30.27 in
(1025 mb)
Calm - 7SM
15:55
Overcast
52°F / 11°C 50°F / 10°C 94% 30.27 in
(1025 mb)
S 4.6 mph
(S 7 kph)
- 10SM
15:35
Overcast
52°F / 11°C 50°F / 10°C 94% 30.27 in
(1025 mb)
Calm - 7SM
15:15
Overcast
Drizzle
52°F / 11°C 50°F / 10°C 94% 30.27 in
(1025 mb)
SW 5.8 mph
(SW 9 kph)
- 4SM
14:55
Overcast
Rain
50°F / 10°C 50°F / 10°C 100% 30.27 in
(1025 mb)
SW 8.1 mph
(SW 13 kph)
0.02 in
(0.51 mm)
2SM
14:35
Overcast
Drizzle
50°F / 10°C 50°F / 10°C 100% 30.27 in
(1025 mb)
SSE 6.9 mph
(SSE 11 kph)
0.01 in
(0.25 mm)
2SM
14:15
Overcast
Drizzle
50°F / 10°C 50°F / 10°C 100% 30.27 in
(1025 mb)
SSE 9.2 mph
(SSE 15 kph)
0.01 in
(0.25 mm)
1 3/4SM
13:55
Overcast
Drizzle
50°F / 10°C 50°F / 10°C 100% 30.27 in
(1025 mb)
SW 4.6 mph
(SW 7 kph)
0.03 in
(0.76 mm)
1 3/4SM
13:35
Overcast
Drizzle
50°F / 10°C 50°F / 10°C 100% 30.27 in
(1025 mb)
SW 5.8 mph
(SW 9 kph)
0.02 in
(0.51 mm)
1 3/4SM
13:15
Overcast
Drizzle
50°F / 10°C 50°F / 10°C 100% 30.27 in
(1025 mb)
SW 6.9 mph
(SW 11 kph)
0.01 in
(0.25 mm)
1 1/2SM
12:55
Overcast
Drizzle
52°F / 11°C 50°F / 10°C 94% 30.27 in
(1025 mb)
SW 6.9 mph
(SW 11 kph)
0.02 in
(0.51 mm)
1 1/2SM
12:35
Overcast
Drizzle
52°F / 11°C 50°F / 10°C 94% 30.27 in
(1025 mb)
SW 4.6 mph
(SW 7 kph)
0.02 in
(0.51 mm)
2 1/2SM
12:15
Overcast
Drizzle
50°F / 10°C 50°F / 10°C 100% 30.27 in
(1025 mb)
SSE 3.5 mph
(SSE 6 kph)
0.01 in
(0.25 mm)
2SM
11:55
Overcast
Drizzle
50°F / 10°C 48°F / 9°C 94% 30.27 in
(1025 mb)
SSE 5.8 mph
(SSE 9 kph)
0.04 in
(1.02 mm)
2SM
11:35
Overcast
Rain
50°F / 10°C 48°F / 9°C 94% 30.27 in
(1025 mb)
S 9.2 mph
(S 15 kph)
0.03 in
(0.76 mm)
4SM
11:15
Overcast
Rain
50°F / 10°C 46°F / 8°C 88% 30.27 in
(1025 mb)
SSE 9.2 mph
(SSE 15 kph)
0.02 in
(0.51 mm)
3SM
10:55
Overcast
Light Rain
50°F / 10°C 46°F / 8°C 88% 30.27 in
(1025 mb)
S 4.6 mph
(S 7 kph)
0.04 in
(1.02 mm)
5SM
10:35
Overcast
Rain
50°F / 10°C 46°F / 8°C 88% 30.27 in
(1025 mb)
SSE 4.6 mph
(SSE 7 kph)
0.03 in
(0.76 mm)
7SM
10:15
Overcast
Light Rain
52°F / 11°C 46°F / 8°C 82% 30.24 in
(1024 mb)
SSE 4.6 mph
(SSE 7 kph)
0.01 in
(0.25 mm)
7SM
09:55
Overcast
Rain
52°F / 11°C 46°F / 8°C 82% 30.24 in
(1024 mb)
Calm 0.01 in
(0.25 mm)
10SM
09:35
Overcast
Drizzle
52°F / 11°C 46°F / 8°C 82% 30.24 in
(1024 mb)
SSE 6.9 mph
(SSE 11 kph)
0.01 in
(0.25 mm)
10SM
09:15
Overcast
Drizzle
52°F / 11°C 46°F / 8°C 82% 30.21 in
(1023 mb)
SE 5.8 mph
(SE 9 kph)
- 10SM
08:55
Mostly Cloudy
Drizzle
50°F / 10°C 46°F / 8°C 88% 30.21 in
(1023 mb)
SE 5.8 mph
(SE 9 kph)
- 10SM
08:35
Mostly Cloudy
Drizzle
50°F / 10°C 46°F / 8°C 88% 30.21 in
(1023 mb)
SE 4.6 mph
(SE 7 kph)
- 10SM
08:15
Mostly Cloudy
Rain
48°F / 9°C 46°F / 8°C 94% 30.21 in
(1023 mb)
SE 4.6 mph
(SE 7 kph)
- 10SM
07:55
Mostly Cloudy
Drizzle
46°F / 8°C 45°F / 7°C 93% 30.21 in
(1023 mb)
ESE 5.8 mph
(ESE 9 kph)
- 10SM
07:35
Overcast
Drizzle
46°F / 8°C 45°F / 7°C 93% 30.21 in
(1023 mb)
ESE 6.9 mph
(ESE 11 kph)
- 10SM
07:15
Mostly Cloudy
Drizzle
46°F / 8°C 45°F / 7°C 93% 30.21 in
(1023 mb)
ESE 5.8 mph
(ESE 9 kph)
- 10SM
06:55
Mostly Cloudy
Drizzle
45°F / 7°C 43°F / 6°C 93% 30.21 in
(1023 mb)
E 5.8 mph
(E 9 kph)
- 10SM
06:35
Mostly Cloudy
45°F / 7°C 43°F / 6°C 93% 30.18 in
(1022 mb)
ESE 6.9 mph
(ESE 11 kph)
- 10SM
06:15
Mostly Cloudy
45°F / 7°C 41°F / 5°C 87% 30.18 in
(1022 mb)
E 6.9 mph
(E 11 kph)
- 10SM
05:55
Partly Cloudy
45°F / 7°C 41°F / 5°C 87% 30.18 in
(1022 mb)
E 6.9 mph
(E 11 kph)
- 10SM
05:35
Partly Cloudy
43°F / 6°C 41°F / 5°C 93% 30.18 in
(1022 mb)
E 6.9 mph
(E 11 kph)
- 10SM
05:15
Clear
43°F / 6°C 41°F / 5°C 93% 30.15 in
(1021 mb)
E 6.9 mph
(E 11 kph)
- 10SM
04:55
Clear
43°F / 6°C 41°F / 5°C 93% N/A E 8.1 mph
(E 13 kph)
- 10SM
04:35
Clear
43°F / 6°C 41°F / 5°C 93% 30.15 in
(1021 mb)
ESE 6.9 mph
(ESE 11 kph)
- 10SM
04:15
Clear
43°F / 6°C 41°F / 5°C 93% 30.15 in
(1021 mb)
E 8.1 mph
(E 13 kph)
- 10SM
03:55
Clear
43°F / 6°C 41°F / 5°C 93% 30.15 in
(1021 mb)
E 6.9 mph
(E 11 kph)
- 10SM
03:35
Clear
43°F / 6°C 41°F / 5°C 93% 30.15 in
(1021 mb)
E 6.9 mph
(E 11 kph)
- 10SM
03:15
Clear
43°F / 6°C 41°F / 5°C 93% 30.15 in
(1021 mb)
E 8.1 mph
(E 13 kph)
- 10SM
02:55
Clear
43°F / 6°C 41°F / 5°C 93% 30.15 in
(1021 mb)
E 8.1 mph
(E 13 kph)
- 10SM
02:35
Clear
43°F / 6°C 41°F / 5°C 93% 30.15 in
(1021 mb)
E 6.9 mph
(E 11 kph)
- 10SM
02:15
Clear
43°F / 6°C 41°F / 5°C 93% 30.15 in
(1021 mb)
E 5.8 mph
(E 9 kph)
- 10SM
01:55
Clear
43°F / 6°C 41°F / 5°C 93% 30.15 in
(1021 mb)
E 5.8 mph
(E 9 kph)
- 10SM
01:35
Clear
43°F / 6°C 41°F / 5°C 93% 30.15 in
(1021 mb)
E 6.9 mph
(E 11 kph)
- 10SM
01:15
Clear
43°F / 6°C 41°F / 5°C 93% 30.15 in
(1021 mb)
E 6.9 mph
(E 11 kph)
- 10SM
00:55
Clear
41°F / 5°C 39°F / 4°C 93% 30.15 in
(1021 mb)
E 6.9 mph
(E 11 kph)
- 10SM
00:35
Clear
41°F / 5°C 39°F / 4°C 93% 30.15 in
(1021 mb)
E 5.8 mph
(E 9 kph)
- 10SM
00:15
Clear
41°F / 5°C 39°F / 4°C 93% 30.15 in
(1021 mb)
E 3.5 mph
(E 6 kph)
- 10SM
Time Weather Temperature Dewpoint Humidity Pressure Winds Precip Visibility


Weather for websites

WeatherForYou.com, LLC is not responsible for any damages or problems caused by this service. Current weather conditions are obtained from the closest station including government and personal stations which may have varying degrees of accuracy. Weather forecasts are derived from the NOAA NDFD. Like all things, this site belongs to Jesus Christ... He just trusts us to maintain it. If you have any questions or comments email webmaster@weatherforyou.com

Copyright © 2015, WeatherForYou.com LLC. All rights reserved.